Location: Kaseke
(18.0171°S, 31.0526°E)
Time: 12:50:13
(UTC+00:00)

ASTEX 1 - Pass Details

Date: 14 July 2020
Orbit: 719 x 745 km, 92.7° (Epoch: 07 August)

Event Time Altitude Azimuth Distance (km) Brightness Sun altitude
Rises 03:44:09 0° 14° (NNE) 3,112 7.2 -10.5°
Reaches altitude 10° 03:46:26 10° 18° (NNE) 2,197 6.4 -10.0°
Maximum altitude 03:51:13 62° 98° (E) 813 4.0 -8.9°
Drops below altitude 10° 03:56:03 10° 177° (S) 2,220 5.7 -7.8°
Sets 03:58:22 0° 180° (S) 3,148 6.5 -7.3°
